Temperature
19 19 19 19 19 19 19 19 19 19 19 19 19 19 19 19 19 19 19 19 19 19 19 19 19 19 19 19 19 19 19 19 19 18 18 18 18 18 18 18 18 18 18
19 19 19 19 19 19 19 19 19 19 19 19 19 19 19 19 19 19 19 19 19 19 19 19 19 19 19 19 19 19 19 19 18 18 18 18 18 18 18 18 18 18 18
19 19 19 19 19 19 19 19 19 19 19 19 19 19 19 19 19 19 19 19 19 19 19 19 19 19 19 19 19 19 19 18 18 18 18 18 18 18 18 18 18 18 18
19 19 19 19 19 19 19 19 19 19 19 19 19 19 19 19 19 19 19 19 19 19 19 19 19 19 19 19 19 19 18 18 18 18 18 18 18 18 18 18 18 18 18
19 18 19 19 19 19 19 19 19 19 19 19 19 19 19 19 19 19 19 19 19 19 19 19 19 19 19 19 19 19 18 18 18 18 18 18 18 18 18 18 18 18 18
18 18 18 18 18 18 18 18 18 18 19 19 19 19 19 19 19 19 19 19 19 19 19 19 19 19 19 19 19 19 18 18 18 18 18 18 18 18 18 18 18 18 18
18 18 18 18 18 18 18 18 18 18 18 18 18 18 18 18 18 18 18 19 19 19 19 19 19 19 19 19 19 19 18 18 18 18 18 18 18 18 18 18 18 18 18
18 18 18 18 18 18 18 17 17 17 17 18 18 18 18 18 18 18 18 18 18 18 18 18 19 19 19 19 19 19 18 18 18 18 18 18 18 18 18 18 18 18 18
18 18 18 18 17 17 17 17 17 17 17 17 17 17 18 18 18 18 18 18 18 18 18 18 18 18 18 19 19 19 18 18 18 18 18 18 18 18 18 18 18 18 18
18 17 17 17 17 17 17 17 17 17 16 16 16 17 17 17 17 17 17 18 18 18 18 18 18 18 18 18 19 19 18 18 18 18 18 18 18 18 18 18 18 18 18
18 17 17 17 17 17 16 16 16 16 16 16 16 16 16 16 17 17 17 17 17 18 18 18 18 18 18 18 18 18 18 18 18 18 18 18 18 18 18 18 18 18 18
17 17 17 17 17 16 16 16 16 16 16 16 16 16 16 16 16 16 17 17 17 17 17 18 18 18 18 18 18 18 18 18 18 18 18 18 18 18 18 18 18 18 18
17 17 17 16 16 16 16 16 15 15 15 15 15 15 15 15 15 16 16 16 17 17 17 17 17 18 18 18 18 18 18 18 18 18 18 18 18 18 18 18 18 18 18
17 17 16 16 16 16 16 15 15 15 15 15 15 15 15 15 15 15 15 16 16 16 17 17 17 17 18 18 18 18 18 18 18 18 18 18 18 18 18 18 18 18 18
17 17 16 16 16 15 15 15 15 15 15 15 15 15 15 15 15 15 15 15 16 16 16 17 17 17 17 17 18 18 18 18 18 18 18 18 18 18 18 18 18 18 18
17 16 16 16 16 15 15 15 15 14 14 14 14 14 14 14 14 15 15 15 15 15 16 16 16 17 17 17 17 17 18 18 18 18 18 18 18 18 18 18 18 18 18
17 16 16 15 15 15 15 14 14 14 14 14 14 14 14 14 14 14 15 15 15 15 15 16 16 16 17 17 17 17 17 18 18 18 18 18 18 18 18 18 18 18 18
16 16 16 15 15 15 15 14 14 14 14 14 14 14 14 14 14 14 14 14 14 15 15 15 16 16 16 16 17 17 17 17 17 18 18 18 18 18 18 18 18 18 18
16 16 15 15 15 15 14 14 14 14 14 14 13 13 13 13 14 14 14 14 14 14 15 15 15 15 16 16 16 17 17 17 17 17 17 17 18 18 18 18 18 18 18
16 16 15 15 14 14 14 14 14 14 14 13 13 13 13 13 13 13 13 14 14 14 14 14 15 15 15 16 16 16 17 17 17 17 17 17 17 18 18 18 18 18 18
16 15 15 15 14 14 14 14 14 14 13 13 13 13 13 13 13 13 13 13 13 14 14 14 14 15 15 15 15 16 16 17 17 17 17 17 17 17 17 18 17 18 18
16 15 15 14 14 14 14 13 13 13 13 13 13 13 13 13 13 13 13 13 13 13 14 14 14 14 15 15 15 15 16 16 17 17 17 17 17 17 17 17 17 17 17
16 15 15 14 14 14 13 13 13 13 13 13 13 13 13 13 13 13 13 13 13 13 13 14 14 14 14 14 15 15 15 16 16 17 17 17 17 17 17 17 17 17 17
15 15 14 14 14 14 13 13 13 13 13 13 13 13 13 13 13 13 13 13 13 13 13 13 13 14 14 14 14 15 15 15 16 16 16 16 17 17 17 17 17 17 17
15 15 14 14 14 13 13 13 13 13 13 13 13 13 13 13 13 12 12 13 13 13 13 13 13 13 14 14 14 14 15 15 15 15 15 16 16 16 16 16 17 17 17
15 15 14 14 14 13 13 13 13 13 13 13 13 13 13 13 12 12 12 12 12 13 13 13 13 13 13 14 14 14 14 14 15 15 15 15 16 16 16 16 16 16 16
Wind_Speed
4 7 11 10 9 8 7 6 6 5 5 4 4 4 4 5 6 6 5 5 5 5 5 5 5 6 6 6 6 6 6 6 6 6 5 5 6 6 7 7 8 7 9
7 9 11 10 9 8 7 6 5 4 4 3 3 3 3 3 4 4 3 3 3 3 4 4 4 4 4 4 5 5 5 5 5 5 3 3 4 6 6 7 7 7 8
8 9 10 9 8 7 6 5 4 4 3 3 2 3 3 3 3 2 2 2 2 2 2 2 2 2 3 3 4 4 5 5 5 4 2 2 4 5 6 7 7 8 8
8 9 9 9 8 7 6 5 4 4 3 3 3 3 3 3 3 3 3 3 2 2 2 1 1 1 1 1 2 4 5 5 5 4 2 3 4 6 6 7 7 8 8
7 8 8 9 8 6 5 4 3 3 3 3 3 3 4 4 4 5 5 5 4 4 4 3 3 2 1 1 1 3 4 5 5 3 2 5 5 6 6 7 7 7 8
6 7 7 7 6 5 4 3 2 2 2 2 3 4 4 5 6 6 6 6 6 6 6 5 5 4 4 3 2 3 4 5 4 2 2 5 6 7 7 7 7 7 7
6 6 6 6 5 4 3 2 2 1 2 2 3 3 4 5 7 7 8 8 7 7 7 7 7 6 6 5 4 4 4 5 2 0 3 5 7 8 7 7 7 7 7
6 5 5 5 4 3 2 1 1 2 2 3 4 5 5 6 6 7 8 9 9 9 9 9 9 8 8 7 6 6 5 5 2 0 2 6 8 9 8 8 7 7 7
4 4 2 1 1 1 1 2 3 4 4 5 5 6 6 7 7 8 8 9 9 10 10 10 10 10 9 9 8 8 7 6 3 3 4 6 9 10 9 8 8 8 8
3 2 2 0 1 3 4 4 5 5 6 7 7 7 7 7 8 9 9 10 10 10 10 11 11 12 11 11 10 9 8 6 4 4 5 8 10 11 10 10 9 9 8
3 1 1 1 1 3 4 4 5 6 7 7 7 8 7 7 7 8 9 10 10 10 11 12 12 12 12 11 11 11 9 6 5 4 6 9 12 12 12 11 10 9 9
2 1 1 1 2 3 3 3 5 5 7 7 7 7 7 6 6 6 7 8 9 10 11 12 13 12 11 8 9 10 7 7 6 6 8 12 13 13 13 12 11 10 10
2 1 1 1 2 3 2 3 3 4 5 6 6 6 6 5 5 5 5 6 7 8 7 7 8 7 6 6 6 6 6 6 7 7 9 14 15 14 14 13 12 11 11
3 2 1 1 2 3 3 3 2 2 3 3 5 5 3 2 2 3 2 4 4 4 3 4 3 4 5 6 6 5 5 5 6 8 10 16 17 16 15 14 13 13 12
4 2 1 1 2 2 2 3 3 2 3 4 4 5 3 1 3 3 2 3 3 4 3 2 3 4 4 4 5 4 4 5 6 8 10 16 19 18 17 16 15 14 13
4 2 0 2 2 3 2 3 2 3 4 3 3 4 3 1 1 2 3 3 2 3 3 2 3 3 4 3 4 4 4 5 6 7 9 13 18 19 18 17 16 15 15
4 2 1 2 3 3 3 3 3 3 3 2 3 5 4 3 2 1 2 3 3 4 3 2 2 2 3 3 4 4 4 4 5 6 8 10 12 17 18 17 17 16 16
5 3 2 3 3 3 3 3 2 3 3 3 4 4 4 4 3 1 2 3 3 3 2 2 1 2 2 2 2 3 3 2 3 5 6 7 9 10 14 17 17 17 17
5 4 3 3 2 2 3 3 3 3 3 3 3 3 4 4 3 2 2 3 3 2 2 2 1 1 2 2 2 2 2 2 2 3 4 5 7 7 9 14 16 17 18
5 5 3 2 2 2 3 3 4 4 4 3 3 3 4 4 4 2 2 3 2 1 2 2 2 2 2 2 3 2 2 2 3 4 5 4 5 7 8 9 11 14 17
4 4 3 2 2 2 2 2 3 4 4 4 4 4 4 4 3 2 2 3 2 1 2 2 1 2 2 1 0 1 2 2 3 3 4 4 5 6 7 8 9 10 12
4 3 3 2 2 2 1 2 2 3 3 3 4 4 5 4 4 2 2 2 2 2 2 1 0 0 1 1 1 1 1 2 1 2 3 4 5 4 5 8 9 10 10
4 3 3 2 1 2 2 2 3 3 3 4 4 4 4 5 4 3 2 2 2 1 2 2 1 2 1 1 1 2 2 3 1 1 2 3 3 4 4 4 7 9 11
4 3 3 1 1 2 2 3 2 2 2 3 4 4 6 5 4 3 2 2 2 1 2 2 1 1 2 1 1 1 2 2 2 1 1 1 3 3 4 5 5 7 10
5 4 2 1 1 2 3 3 2 2 2 3 4 5 5 5 4 4 2 2 2 2 2 2 1 1 2 2 2 1 0 0 1 2 1 1 1 1 2 4 4 5 9
4 3 2 1 1 2 3 3 2 2 3 4 5 5 5 4 4 5 3 3 2 2 2 2 2 2 2 2 2 2 2 1 2 2 2 1 2 2 2 2 3 4 6
Wind_Direction
160 163 147 140 133 128 125 121 121 120 118 117 116 112 103 99 99 99 94 86 81 78 71 65 58 57 57 50 46 48 50 53 51 52 59 69 76 82 85 87 94 92 93
154 157 145 145 141 137 133 130 132 133 131 130 131 130 125 121 119 119 107 98 91 87 84 75 60 58 55 47 38 37 39 39 38 36 48 72 88 92 93 94 104 103 101
139 144 140 144 141 141 141 139 140 148 151 154 159 156 157 160 163 158 147 151 136 117 111 101 77 72 60 48 29 21 20 15 15 15 43 117 117 109 105 104 106 106 105
134 137 136 135 132 134 139 143 146 151 164 178 188 189 192 197 204 211 213 211 204 195 187 182 158 117 91 50 15 2 358 359 11 20 74 144 138 121 114 112 112 111 108
125 128 132 132 133 134 139 147 151 154 170 186 198 208 217 220 224 230 231 230 225 218 216 213 204 194 197 229 328 338 341 349 6 33 93 138 135 131 121 116 115 116 115
127 128 131 130 130 136 144 152 162 176 195 207 212 218 226 230 233 234 235 233 231 227 223 217 212 211 215 231 263 300 321 338 359 47 129 152 152 146 134 125 123 125 124
134 141 134 129 128 128 138 146 163 197 230 243 246 244 246 248 245 240 238 237 235 232 228 222 219 218 220 229 246 267 294 322 354 92 172 171 166 155 145 138 134 134 130
139 143 137 131 129 135 162 186 241 264 264 265 266 263 260 261 262 256 248 244 240 236 232 225 223 224 224 228 237 250 270 294 328 333 193 183 174 160 151 148 145 142 139
124 123 120 126 137 195 243 253 265 280 285 285 280 274 269 267 268 268 263 255 247 240 234 229 227 226 227 228 234 245 259 273 282 258 222 196 181 168 160 155 152 151 147
115 113 120 118 310 302 292 279 286 295 292 291 291 291 288 281 272 270 271 265 252 245 240 235 232 230 229 229 234 244 255 266 261 260 222 203 187 173 165 161 158 155 151
99 96 90 48 350 309 291 284 296 303 307 301 298 297 293 289 280 274 273 269 258 250 246 241 238 234 231 232 237 243 253 247 239 243 223 207 191 178 169 165 163 160 159
113 94 72 56 17 359 346 336 323 314 316 308 298 296 292 283 279 280 277 275 268 262 252 245 240 236 232 230 240 246 242 236 233 234 226 212 195 183 174 171 167 164 163
149 104 64 46 23 16 350 343 335 329 323 322 314 305 299 294 292 289 282 281 282 278 265 252 244 234 223 218 228 235 235 232 231 231 227 213 198 187 179 175 171 169 167
114 101 45 38 28 8 4 341 333 328 317 317 321 325 321 307 299 290 275 277 273 268 254 245 238 236 229 226 227 231 233 229 229 224 223 215 201 191 183 179 175 172 170
107 102 49 52 46 17 8 342 355 326 312 310 322 329 336 319 310 303 291 278 274 270 254 244 237 233 232 230 234 232 230 229 233 225 218 214 203 194 187 182 178 177 174
117 129 97 61 46 39 20 344 327 334 334 341 339 335 338 342 310 313 310 295 279 268 260 242 239 238 234 227 238 238 235 227 230 221 209 210 203 195 190 185 182 181 178
136 109 66 79 47 35 10 346 348 345 353 350 341 338 341 342 334 304 304 303 287 283 273 262 260 249 243 233 236 242 241 222 211 204 202 200 201 200 194 189 186 184 183
120 96 62 54 45 18 0 342 334 342 344 332 332 334 336 331 329 323 308 291 294 301 284 267 253 257 254 243 242 254 251 219 196 193 191 194 196 199 200 196 192 190 187
123 108 83 62 39 7 351 339 332 332 328 323 328 326 320 318 318 318 299 290 307 305 287 274 255 237 250 250 240 241 236 208 191 185 180 189 194 193 197 201 198 196 193
114 104 93 61 28 11 356 348 342 337 326 325 322 309 310 314 312 316 290 298 307 319 305 287 260 254 242 243 257 263 249 215 188 184 186 188 195 198 198 199 197 201 201
100 90 79 52 8 12 358 346 333 321 318 325 319 314 315 314 313 296 296 301 303 284 278 277 249 248 252 194 159 313 307 255 207 194 182 181 197 203 199 201 196 195 202
119 102 83 53 14 353 313 285 270 283 294 299 313 325 326 321 316 304 293 289 285 277 297 293 237 225 250 170 155 134 320 327 298 206 178 189 198 193 195 201 198 195 198
127 119 103 81 28 341 329 331 343 349 337 338 335 331 323 325 322 310 304 301 293 254 264 262 223 177 228 261 183 166 173 224 276 297 199 193 187 191 195 195 198 197 196
154 139 127 118 358 334 349 6 358 350 326 300 303 310 320 328 327 322 323 324 307 282 263 264 222 187 176 208 279 219 197 185 177 295 306 213 191 192 196 204 199 196 199
155 147 143 118 344 337 356 13 16 354 304 306 322 333 335 335 338 339 331 336 328 305 274 271 274 210 184 187 195 210 215 166 164 175 249 278 254 222 207 206 197 192 200
154 147 141 122 318 327 348 5 21 352 337 344 342 340 335 330 330 332 329 333 322 312 291 272 258 227 209 196 196 193 189 187 193 169 195 233 244 246 221 206 198 198 198
Height
1539 1539 1540 1540 1540 1540 1540 1540 1540 1540 1540 1540 1540 1540 1540 1540 1540 1540 1540 1540 1539 1539 1539 1538 1538 1538 1537 1537 1536 1536 1535 1535 1534 1534 1533 1533 1533 1532 1532 1532 1532 1531 1531
1538 1538 1539 1540 1540 1540 1540 1540 1540 1539 1539 1539 1539 1539 1539 1539 1539 1539 1539 1539 1539 1538 1538 1538 1538 1537 1537 1537 1536 1536 1535 1535 1535 1534 1534 1533 1533 1533 1532 1532 1532 1532 1532
1537 1538 1538 1539 1539 1539 1539 1539 1539 1539 1538 1538 1538 1538 1538 1538 1538 1538 1538 1538 1538 1537 1537 1537 1537 1537 1536 1536 1536 1536 1535 1535 1535 1534 1534 1534 1533 1533 1533 1533 1532 1532 1533
1537 1538 1538 1539 1539 1538 1538 1538 1538 1537 1537 1537 1537 1536 1536 1536 1537 1537 1537 1536 1536 1536 1536 1536 1536 1536 1536 1536 1535 1535 1535 1535 1535 1534 1534 1534 1533 1533 1533 1533 1533 1533 1533
1537 1537 1538 1538 1538 1538 1537 1537 1537 1536 1536 1535 1535 1535 1535 1535 1535 1535 1535 1535 1535 1535 1535 1535 1535 1535 1535 1535 1535 1535 1535 1535 1534 1534 1534 1534 1533 1533 1533 1533 1533 1533 1534
1537 1537 1537 1537 1537 1536 1536 1535 1535 1535 1534 1534 1533 1533 1533 1533 1533 1533 1533 1533 1533 1533 1533 1533 1533 1533 1533 1534 1534 1534 1534 1534 1534 1534 1534 1534 1533 1533 1533 1533 1534 1534 1534
1537 1537 1537 1536 1536 1535 1535 1534 1534 1533 1532 1532 1531 1531 1531 1531 1531 1531 1531 1531 1531 1531 1531 1531 1532 1532 1532 1532 1533 1533 1533 1533 1533 1533 1533 1533 1533 1533 1533 1534 1534 1534 1534
1537 1537 1536 1536 1535 1534 1533 1532 1532 1531 1530 1530 1529 1529 1528 1528 1528 1528 1528 1529 1529 1529 1529 1529 1530 1530 1530 1531 1531 1532 1532 1533 1533 1533 1533 1533 1533 1533 1533 1533 1534 1534 1535
1537 1536 1536 1535 1534 1533 1532 1531 1530 1529 1528 1527 1527 1526 1526 1525 1525 1526 1526 1526 1526 1527 1527 1527 1528 1528 1528 1529 1530 1530 1531 1531 1532 1532 1533 1533 1533 1533 1533 1533 1534 1534 1535
1536 1536 1535 1534 1533 1531 1530 1529 1528 1527 1526 1525 1524 1523 1523 1523 1523 1523 1523 1523 1524 1524 1524 1525 1525 1526 1526 1527 1528 1528 1529 1530 1530 1531 1532 1532 1532 1533 1533 1533 1533 1534 1535
1536 1535 1534 1532 1531 1530 1528 1527 1526 1525 1524 1523 1522 1521 1520 1520 1520 1520 1520 1520 1520 1521 1521 1522 1523 1524 1524 1525 1526 1526 1527 1528 1529 1530 1531 1531 1532 1532 1532 1533 1533 1533 1534
1535 1534 1533 1531 1529 1528 1527 1525 1524 1523 1521 1520 1519 1518 1517 1517 1517 1517 1517 1517 1517 1518 1518 1519 1520 1521 1522 1523 1523 1524 1525 1526 1527 1528 1529 1530 1531 1531 1532 1532 1533 1533 1534
1534 1533 1532 1530 1528 1526 1525 1523 1522 1520 1519 1518 1517 1516 1515 1514 1514 1513 1514 1514 1514 1515 1515 1516 1517 1518 1519 1520 1521 1522 1523 1524 1525 1527 1528 1529 1530 1530 1531 1531 1532 1533 1534
1533 1531 1530 1528 1527 1525 1523 1521 1520 1518 1516 1515 1514 1513 1512 1511 1510 1510 1510 1510 1511 1512 1512 1513 1514 1515 1516 1518 1519 1520 1521 1522 1524 1525 1526 1527 1528 1529 1530 1530 1531 1532 1533
1531 1530 1528 1527 1525 1523 1521 1519 1517 1516 1514 1513 1511 1510 1509 1508 1508 1507 1507 1507 1507 1508 1509 1509 1511 1512 1513 1515 1516 1517 1519 1520 1521 1523 1524 1525 1527 1528 1528 1529 1530 1531 1532
1530 1528 1527 1525 1524 1522 1520 1517 1515 1513 1512 1510 1509 1508 1507 1506 1505 1504 1504 1504 1504 1505 1505 1506 1507 1509 1510 1511 1513 1514 1516 1517 1518 1520 1522 1523 1525 1526 1527 1528 1529 1530 1531
1528 1527 1526 1524 1522 1520 1518 1516 1514 1512 1510 1508 1507 1505 1504 1503 1502 1501 1501 1501 1501 1501 1502 1503 1504 1505 1506 1508 1509 1511 1513 1514 1516 1517 1519 1521 1523 1524 1525 1527 1527 1529 1530
1527 1526 1525 1523 1521 1518 1516 1514 1512 1510 1508 1506 1504 1503 1501 1500 1499 1499 1498 1498 1498 1498 1499 1500 1501 1502 1503 1505 1506 1508 1509 1511 1513 1514 1516 1518 1520 1522 1524 1525 1526 1527 1529
1526 1525 1523 1521 1519 1517 1515 1513 1511 1508 1506 1504 1502 1501 1499 1498 1497 1496 1495 1495 1495 1495 1496 1497 1498 1499 1500 1501 1503 1505 1506 1508 1509 1511 1513 1516 1518 1520 1522 1523 1524 1526 1527
1525 1524 1522 1520 1518 1516 1514 1512 1509 1507 1504 1502 1500 1499 1497 1496 1495 1494 1493 1493 1492 1492 1493 1494 1495 1496 1496 1498 1500 1501 1503 1505 1506 1508 1510 1513 1515 1517 1519 1521 1522 1524 1525
1524 1522 1521 1519 1517 1515 1513 1510 1508 1506 1503 1501 1499 1497 1496 1494 1493 1492 1491 1490 1490 1490 1490 1491 1492 1493 1494 1495 1497 1498 1500 1502 1503 1505 1507 1510 1512 1514 1516 1518 1520 1521 1523
1523 1521 1520 1518 1516 1514 1512 1509 1507 1505 1503 1500 1498 1496 1494 1493 1491 1490 1489 1488 1488 1488 1488 1489 1490 1491 1492 1493 1494 1496 1497 1500 1500 1502 1504 1506 1509 1511 1513 1515 1517 1519 1520
1522 1520 1519 1517 1515 1513 1511 1509 1507 1504 1502 1500 1497 1495 1493 1491 1490 1488 1487 1487 1486 1486 1486 1487 1487 1488 1489 1491 1492 1494 1495 1496 1497 1499 1501 1503 1505 1507 1509 1512 1514 1516 1518
1521 1519 1518 1516 1515 1513 1510 1508 1506 1503 1501 1499 1496 1494 1492 1491 1489 1487 1486 1485 1484 1484 1484 1485 1486 1486 1487 1488 1490 1492 1494 1494 1496 1496 1498 1500 1502 1504 1506 1508 1510 1512 1514
1520 1519 1517 1516 1514 1512 1510 1508 1505 1503 1501 1498 1496 1494 1492 1490 1488 1486 1485 1483 1482 1482 1482 1483 1483 1484 1485 1486 1488 1489 1490 1492 1493 1494 1495 1497 1499 1501 1503 1505 1507 1509 1511
1519 1518 1516 1515 1513 1511 1509 1507 1505 1503 1500 1498 1496 1493 1491 1489 1487 1485 1483 1482 1481 1480 1480 1480 1481 1482 1483 1484 1485 1486 1488 1489 1490 1492 1493 1494 1496 1497 1499 1501 1503 1505 1507